This is the latest recevied weather packets stored in our database for station/object HA9OZD-18. If no packets are shown the sender has not sent any weather packets the latest 10 day(s).
| Time | Temp. | Humidity | Pressure | Rain* | Wind** | Luminosity | Snow |
|---|---|---|---|---|---|---|---|
| 1777665159 | 7.22° C | 51% | 1024.4 hPa | - | - | - | - |
| 1777661559 | 7.78° C | 48% | 1024.4 hPa | - | - | - | - |
| 1777657958 | 8.89° C | 46% | 1024 hPa | - | - | - | - |
| 1777654358 | 9.44° C | 44% | 1023.8 hPa | - | - | - | - |
| 1777650758 | 10.56° C | 41% | 1024 hPa | - | - | - | - |
| 1777647205 | 10.56° C | 40% | 1024.4 hPa | - | - | - | - |
| 1777647158 | 10.56° C | 40% | 1024.4 hPa | - | - | - | - |
| 1777643571 | 11.11° C | 37% | 1024.6 hPa | - | - | - | - |
| 1777639970 | 11.67° C | 35% | 1024.8 hPa | - | - | - | - |
| 1777636370 | 11.11° C | 35% | 1025.2 hPa | - | - | - | - |
| 1777632780 | 10° C | 36% | 1025.3 hPa | - | - | - | - |
| 1777632770 | 10° C | 36% | 1025.3 hPa | - | - | - | - |
| 1777629170 | 12.22° C | 33% | 1025.4 hPa | - | - | - | - |
| 1777625570 | 10.56° C | 34% | 1025.5 hPa | - | - | - | - |
| 1777621969 | 8.89° C | 33% | 1025.4 hPa | - | - | - | - |
| 1777618369 | 7.22° C | 31% | 1025.3 hPa | - | - | - | - |
| 1777614769 | 4.44° C | 30% | 1025 hPa | - | - | - | - |
| 1777611169 | 2.78° C | 33% | 1024.7 hPa | - | - | - | - |
| 1777607567 | 2.78° C | 33% | 1024.6 hPa | - | - | - | - |
| 1777603966 | 2.22° C | 37% | 1024.5 hPa | - | - | - | - |
| 1777600366 | 2.22° C | 38% | 1024.5 hPa | - | - | - | - |
| 1777596766 | 2.78° C | 40% | 1024.6 hPa | - | - | - | - |
| 1777593165 | 2.78° C | 41% | 1024.5 hPa | - | - | - | - |
| 1777589565 | 2.22° C | 45% | 1024.9 hPa | - | - | - | - |
| 1777585965 | 2.22° C | 45% | 1024.9 hPa | - | - | - | - |
* Rain since midnight (hover to see other rain measurements)
** Current wind speed in m/s (hover to see current wind gust speed)